Location: Unspecified
(6.8434°N, 0.0000°E)
Time: 02:55:53
(UTC+00:00)

ISS - Visible Passes

Search period start: 04 April 2026 00:00
Search period end: 14 April 2026 00:00
Orbit: 417 x 425 km, 51.6° (Epoch: 29 March)

Date Brightness Start Highest point End Pass type
(mag) Time Alt. Az. Time Alt. Az. Time Alt. Az.
4 Apr -2.1 19:23:58 10° WNW 19:26:59 31° SW 19:28:33 20° S visible
5 Apr -3.6 18:36:25 10° NW 18:39:47 77° SW 18:43:08 10° SSE visible
7 Apr -0.8 18:40:02 10° W 18:41:52 14° SW 18:43:42 10° SSW visible
9 Apr -2.2 05:30:50 10° SSW 05:33:58 37° SE 05:37:05 10° NE visible
10 Apr -1.0 04:44:25 10° SSE 04:46:40 17° SE 04:48:55 10° E visible
12 Apr -3.9 04:47:25 39° SW 04:48:32 84° WNW 04:51:53 10° NE visible
13 Apr -1.3 04:02:47 22° ENE 04:02:47 22° ENE 04:04:18 10° NE visible
